Weather History for KPRX - March, 2013

Change the Weather History Date:

Saturday, March 9, 2013

  Actual Average Record
Temperature  
Mean Temperature 60 °F -  
Max Temperature 66 °F 60 °F 80 °F (2009)
Min Temperature 53 °F 41 °F 33 °F (2002)
Degree Days  
Heating Degree Days 6    
Growing Degree Days 10 (Base 50)    
Moisture  
Dew Point 52 °F    
Average Humidity 74    
Maximum Humidity 94    
Minimum Humidity 42    
Precipitation  
Precipitation 0.06 in - - ()
Sea Level Pressure  
Sea Level Pressure 29.88 in    
Wind  
Wind Speed 14 mph (SE)    
Max Wind Speed 23 mph    
Max Gust Speed 30 mph    
Visibility 10 miles    
Events Thunderstorm    
Averages and records for this station are not official NWS values.
T = Trace of Precipitation, MM = Missing Value Source: NWS Daily Summary

Daily Weather History Graph

Daily Weather History Graph

Search for Another Location

Airport or City:

Trip Planner

Search our weather history database for the weather conditions in past years. The results will help you decide how hot, cold, wet, or windy it might be!

Date:

Astronomy

Mar. 09, 2013 Rise Set
Actual Time 6:39 AM CST 6:25 PM CST
Civil Twilight 6:14 AM CST 6:50 PM CST
Nautical Twilight 5:46 AM CST 7:18 PM CST
Astronomical Twilight 5:17 AM CST 7:47 PM CST
Moon 4:59 AM CST (3/9) 4:31 PM CST (3/9)
Length of Visible Light 12h 35m
Length of Day
11h 45m
Waning Crescent, 5% of the Moon is Illuminated
Mar 9
Waning Crescent
Mar 11
New
Mar 19
First Quarter
Mar 27
Full
Apr 2
Last Quarter

Hourly Weather History & Observations

Time (CST) Temp. Dew Point Humidity Pressure Visibility Wind Dir Wind Speed Gust Speed Precip Events Conditions
12:15 AM 60.8 °F 37.4 °F 42% 30.05 in 10.0 mi SSE 13.8 mph - N/A   Overcast
12:35 AM 60.8 °F 39.2 °F 45% 30.05 in 10.0 mi SSE 12.7 mph - N/A   Scattered Clouds
12:55 AM 59.0 °F 39.2 °F 48% 30.04 in 10.0 mi SSE 13.8 mph - N/A   Clear
1:15 AM 57.2 °F 39.2 °F 51% 30.03 in 10.0 mi SSE 13.8 mph - N/A   Clear
1:35 AM 57.2 °F 39.2 °F 51% 30.04 in 10.0 mi SSE 13.8 mph - N/A   Partly Cloudy
1:55 AM 57.2 °F 41.0 °F 55% 30.03 in 10.0 mi SSE 12.7 mph - N/A   Mostly Cloudy
2:15 AM 57.2 °F 41.0 °F 55% 30.02 in 10.0 mi SSE 12.7 mph - N/A   Mostly Cloudy
2:35 AM 55.4 °F 42.8 °F 63% 30.01 in 10.0 mi SSE 13.8 mph - N/A   Partly Cloudy
2:55 AM 55.4 °F 42.8 °F 63% 29.99 in 10.0 mi SSE 13.8 mph - N/A   Clear
3:15 AM 55.4 °F 44.6 °F 67% 29.98 in 10.0 mi SE 12.7 mph - N/A   Clear
3:35 AM 55.4 °F 42.8 °F 63% 29.98 in 10.0 mi SE 12.7 mph - N/A   Clear
3:55 AM 53.6 °F 44.6 °F 72% 29.96 in 10.0 mi SE 12.7 mph - N/A   Partly Cloudy
4:15 AM 55.4 °F 44.6 °F 67% 29.97 in 10.0 mi SE 12.7 mph - N/A   Clear
4:35 AM 53.6 °F 46.4 °F 77% 29.98 in 10.0 mi SSE 8.1 mph - N/A   Clear
4:55 AM 53.6 °F 46.4 °F 77% 29.98 in 10.0 mi SSE 5.8 mph - N/A   Mostly Cloudy
5:15 AM 53.6 °F 46.4 °F 77% 29.98 in 10.0 mi SE 6.9 mph - N/A   Overcast
5:35 AM 55.4 °F 46.4 °F 72% 29.98 in 10.0 mi SE 8.1 mph - N/A   Overcast
5:55 AM 55.4 °F 46.4 °F 72% 29.98 in 10.0 mi SE 6.9 mph - N/A   Overcast
6:15 AM 55.4 °F 46.4 °F 72% 29.98 in 10.0 mi SE 9.2 mph - N/A   Overcast
6:35 AM 55.4 °F 48.2 °F 77% 29.98 in 10.0 mi SE 9.2 mph - N/A   Overcast
6:55 AM 55.4 °F 48.2 °F 77% 29.98 in 10.0 mi SE 10.4 mph - N/A   Overcast
7:15 AM 55.4 °F 48.2 °F 77% 29.97 in 10.0 mi SE 11.5 mph - N/A   Overcast
7:35 AM 57.2 °F 50.0 °F 77% 29.96 in 10.0 mi SE 11.5 mph - N/A   Overcast
7:55 AM 57.2 °F 50.0 °F 77% 29.96 in 10.0 mi SE 13.8 mph - N/A   Overcast
8:15 AM 57.2 °F 51.8 °F 82% 29.96 in 10.0 mi SE 15.0 mph - N/A   Overcast
8:35 AM 59.0 °F 51.8 °F 77% 29.96 in 10.0 mi SE 12.7 mph - N/A   Overcast
8:55 AM 60.8 °F 51.8 °F 72% 29.95 in 10.0 mi SE 15.0 mph 20.7 mph N/A   Overcast
9:15 AM 60.8 °F 53.6 °F 77% 29.95 in 10.0 mi SSE 16.1 mph - N/A   Overcast
9:35 AM 60.8 °F 53.6 °F 77% 29.95 in 10.0 mi SSE 16.1 mph 20.7 mph N/A   Overcast
9:55 AM 62.6 °F 55.4 °F 77% 29.94 in 10.0 mi SSE 17.3 mph - N/A   Overcast
10:15 AM 62.6 °F 55.4 °F 77% 29.94 in 10.0 mi SSE 13.8 mph 21.9 mph N/A   Overcast
10:35 AM 62.6 °F 55.4 °F 77% 29.93 in 10.0 mi SSE 16.1 mph 21.9 mph N/A   Overcast
10:55 AM 62.6 °F 55.4 °F 77% 29.93 in 10.0 mi SE 16.1 mph 23.0 mph N/A   Overcast
11:15 AM 62.6 °F 55.4 °F 77% 29.93 in 10.0 mi SE 15.0 mph - N/A   Overcast
11:35 AM 60.8 °F 53.6 °F 77% 29.93 in 10.0 mi SSE 16.1 mph - N/A   Overcast
11:55 AM 60.8 °F 53.6 °F 77% 29.92 in 10.0 mi SE 13.8 mph - N/A   Overcast
12:15 PM 60.8 °F 53.6 °F 77% 29.91 in 10.0 mi SE 15.0 mph - N/A   Overcast
12:35 PM 60.8 °F 55.4 °F 82% 29.90 in 10.0 mi SE 15.0 mph - N/A   Overcast
12:55 PM 62.6 °F 55.4 °F 77% 29.88 in 10.0 mi SE 15.0 mph - N/A   Overcast
1:15 PM 62.6 °F 55.4 °F 77% 29.87 in 10.0 mi SE 15.0 mph - N/A   Overcast
1:35 PM 62.6 °F 55.4 °F 77% 29.85 in 10.0 mi SE 16.1 mph - N/A   Overcast
1:55 PM 62.6 °F 55.4 °F 77% 29.84 in 10.0 mi SE 12.7 mph - N/A   Overcast
2:15 PM 62.6 °F 55.4 °F 77% 29.83 in 10.0 mi SE 17.3 mph - N/A   Overcast
2:35 PM 64.4 °F 57.2 °F 77% 29.82 in 10.0 mi SE 16.1 mph - N/A   Overcast
2:55 PM 64.4 °F 57.2 °F 77% 29.80 in 10.0 mi SE 19.6 mph 23.0 mph N/A   Overcast
3:15 PM 64.4 °F 57.2 °F 77% 29.79 in 10.0 mi SE 17.3 mph - N/A   Overcast
3:35 PM 66.2 °F 57.2 °F 73% 29.79 in 10.0 mi SSE 20.7 mph 24.2 mph N/A   Overcast
3:55 PM 66.2 °F 57.2 °F 73% 29.77 in 10.0 mi SSE 23.0 mph 28.8 mph N/A   Overcast
4:15 PM 66.2 °F 57.2 °F 73% 29.76 in 10.0 mi SSE 20.7 mph 29.9 mph N/A   Mostly Cloudy
4:35 PM 66.2 °F 57.2 °F 73% 29.74 in 10.0 mi SSE 21.9 mph 26.5 mph N/A   Scattered Clouds
4:55 PM 66.2 °F 57.2 °F 73% 29.73 in 10.0 mi SSE 20.7 mph - N/A   Mostly Cloudy
5:15 PM 66.2 °F 57.2 °F 73% 29.74 in 10.0 mi SSE 16.1 mph 24.2 mph N/A   Mostly Cloudy
5:35 PM 66.2 °F 57.2 °F 73% 29.74 in 10.0 mi SE 17.3 mph - N/A   Overcast
5:55 PM 66.2 °F 57.2 °F 73% 29.73 in 10.0 mi SE 16.1 mph - N/A   Overcast
6:15 PM 66.2 °F 57.2 °F 73% 29.74 in 10.0 mi SE 15.0 mph - N/A   Overcast
6:35 PM 64.4 °F 57.2 °F 77% 29.75 in 10.0 mi SSE 12.7 mph - N/A   Overcast
6:55 PM 64.4 °F 59.0 °F 83% 29.75 in 10.0 mi SSE 12.7 mph - N/A   Overcast
7:15 PM 64.4 °F 59.0 °F 83% 29.75 in 10.0 mi SSE 16.1 mph - N/A   Overcast
7:35 PM 64.4 °F 59.0 °F 83% 29.75 in 10.0 mi SSE 16.1 mph - N/A   Overcast
7:55 PM 64.4 °F 59.0 °F 83% 29.74 in 10.0 mi SSE 18.4 mph - N/A   Mostly Cloudy
8:15 PM 64.4 °F 59.0 °F 83% 29.74 in 10.0 mi SE 17.3 mph - N/A   Mostly Cloudy
8:35 PM 64.4 °F 57.2 °F 77% 29.75 in 10.0 mi SSE 17.3 mph - N/A   Overcast
8:55 PM 64.4 °F 57.2 °F 77% 29.76 in 10.0 mi SSE 16.1 mph - N/A   Overcast
9:15 PM 64.4 °F 57.2 °F 77% 29.77 in 10.0 mi SSE 16.1 mph 21.9 mph N/A   Overcast
9:35 PM 64.4 °F 57.2 °F 77% 29.77 in 10.0 mi South 15.0 mph - N/A   Overcast
9:55 PM 66.2 °F 57.2 °F 73% 29.77 in 10.0 mi SSE 13.8 mph - N/A   Overcast
10:15 PM 66.2 °F 57.2 °F 73% 29.78 in 10.0 mi South 16.1 mph 23.0 mph N/A   Overcast
10:35 PM 64.4 °F 55.4 °F 73% 29.81 in 10.0 mi WNW 18.4 mph 23.0 mph N/A Thunderstorm Overcast
10:55 PM 60.8 °F 55.4 °F 82% 29.78 in 10.0 mi NW 9.2 mph - 0.03 in   Overcast
11:15 PM 59.0 °F 55.4 °F 88% 29.79 in 10.0 mi NW 5.8 mph - 0.01 in   Overcast
11:35 PM 59.0 °F 55.4 °F 88% 29.77 in 10.0 mi NE 5.8 mph - 0.02 in   Overcast
11:55 PM 57.2 °F 55.4 °F 94% 29.75 in 10.0 mi NE 8.1 mph - 0.03 in   Overcast